Powrót do katalogu

STARLINK-3105

AktywnyŁącznośćVLEO
NORAD 49440·PAYLOAD·🇺🇸 United States

Wystrzelony Nov 13, 2021 z Cape Canaveral Space Force Station

Loading…

Następne Przeloty (najbliższe 24 godziny)

TLE

ŚwieżeSource: CelesTrak SupGP

Epoka: Sep 14, 2026, 13:45 UTC

1 49440C 21104AJ  26257.57340278  .00535450  00000+0  17433-1 0  2574
2 49440  53.1604  79.0252 0001233  83.7546 180.3564 15.31038208    18

Śledź STARLINK-3105 w czasie rzeczywistym z AllMySat

Download on the App Store